Location: Peterborough
(44.3091°N, 78.3197°W)
Time: 17:26:46
(UTC-05:00)

Tiros 1 despin weight - Pass Details

Date: 30 November 2023
Orbit: 581 x 624 km, 48.2° (Epoch: 24 February)

Event Time Altitude Azimuth Distance (km) Brightness Sun altitude
Rises 19:30:30 0° 220° (SW) 2,788 ? -30.6°
Reaches altitude 10° 19:32:53 10° 212° (SSW) 1,889 ? -31.0°
Enters shadow 19:33:25 13° 209° (SSW) 1,700 ? -31.1°
